TimeCST,TemperatureF,Dew PointF,Humidity,Sea Level PressureIn,VisibilityMPH,Wind Direction,Wind SpeedMPH,Gust SpeedMPH,PrecipitationIn,Events,Conditions,WindDirDegrees,DateUTC
12:15 AM,31.1,29.8,95,30.10,10.0,WSW,12.7,16.1,N/A,,Overcast,250,2013-12-09 06:15:00
12:35 AM,31.1,29.3,93,30.10,10.0,WSW,9.2,-,N/A,,Overcast,250,2013-12-09 06:35:00
12:55 AM,30.9,29.3,94,30.10,10.0,WSW,8.1,-,N/A,,Overcast,250,2013-12-09 06:55:00
1:15 AM,30.9,29.3,94,30.10,10.0,WSW,8.1,-,N/A,,Overcast,250,2013-12-09 07:15:00
1:35 AM,30.7,29.1,94,30.11,10.0,West,9.2,-,N/A,,Overcast,260,2013-12-09 07:35:00
1:55 AM,30.7,29.1,94,30.12,10.0,WSW,9.2,-,N/A,,Overcast,250,2013-12-09 07:55:00
2:15 AM,30.6,28.9,94,30.13,10.0,WSW,8.1,-,N/A,,Overcast,250,2013-12-09 08:15:00
2:35 AM,30.6,28.8,93,30.14,10.0,WSW,9.2,-,N/A,,Overcast,250,2013-12-09 08:35:00
2:55 AM,30.6,28.8,93,30.14,10.0,West,8.1,-,N/A,,Overcast,260,2013-12-09 08:55:00
3:15 AM,30.6,28.4,92,30.15,10.0,West,8.1,-,N/A,,Overcast,260,2013-12-09 09:15:00
3:35 AM,30.6,28.4,92,30.14,10.0,WSW,6.9,-,N/A,,Overcast,250,2013-12-09 09:35:00
3:55 AM,30.2,28.4,93,30.15,10.0,WSW,8.1,-,N/A,,Overcast,250,2013-12-09 09:55:00
4:15 AM,30.2,28.4,93,30.16,10.0,West,8.1,-,N/A,,Overcast,260,2013-12-09 10:15:00
4:35 AM,30.2,28.4,93,30.16,10.0,West,6.9,-,N/A,,Overcast,260,2013-12-09 10:35:00
4:55 AM,30.0,28.2,93,30.16,10.0,West,6.9,-,N/A,,Overcast,260,2013-12-09 10:55:00
5:15 AM,30.0,28.2,93,30.16,10.0,WSW,4.6,-,N/A,,Overcast,250,2013-12-09 11:15:00
5:35 AM,29.8,28.2,94,30.16,10.0,SSW,5.8,-,N/A,,Mostly Cloudy,210,2013-12-09 11:35:00
5:55 AM,28.9,27.7,95,30.18,10.0,SW,6.9,-,N/A,,Mostly Cloudy,230,2013-12-09 11:55:00
6:15 AM,29.3,28.2,96,30.19,10.0,SW,8.1,-,N/A,,Overcast,230,2013-12-09 12:15:00
6:35 AM,28.9,27.5,94,30.19,10.0,SW,6.9,-,N/A,,Scattered Clouds,230,2013-12-09 12:35:00
6:55 AM,28.4,27.5,96,30.19,10.0,WSW,5.8,-,N/A,,Mostly Cloudy,240,2013-12-09 12:55:00
7:15 AM,30.0,27.9,92,30.20,10.0,West,10.4,-,N/A,,Overcast,280,2013-12-09 13:15:00
7:35 AM,30.4,26.4,85,30.22,10.0,WNW,15.0,-,N/A,,Overcast,290,2013-12-09 13:35:00
7:55 AM,30.2,26.1,85,30.23,10.0,WNW,10.4,-,N/A,,Overcast,300,2013-12-09 13:55:00
8:15 AM,30.2,26.1,85,30.22,10.0,WNW,8.1,-,N/A,,Overcast,300,2013-12-09 14:15:00
8:35 AM,30.0,23.9,78,30.23,10.0,WNW,10.4,-,N/A,,Overcast,300,2013-12-09 14:35:00
8:55 AM,29.8,23.9,79,30.23,10.0,WNW,10.4,-,N/A,,Overcast,290,2013-12-09 14:55:00
9:15 AM,30.2,23.9,77,30.24,10.0,West,8.1,-,N/A,,Overcast,280,2013-12-09 15:15:00
9:35 AM,30.2,24.1,78,30.26,10.0,West,9.2,-,N/A,,Overcast,280,2013-12-09 15:35:00
9:55 AM,29.3,20.1,69,30.27,10.0,WNW,13.8,-,N/A,,Scattered Clouds,290,2013-12-09 15:55:00
10:15 AM,29.3,20.5,70,30.29,10.0,West,12.7,-,N/A,,Clear,280,2013-12-09 16:15:00
10:35 AM,29.3,21.4,72,30.30,10.0,WNW,15.0,-,N/A,,Clear,300,2013-12-09 16:35:00
10:55 AM,29.7,21.9,73,30.29,10.0,WNW,12.7,-,N/A,,Clear,300,2013-12-09 16:55:00
11:15 AM,30.0,22.1,72,30.29,10.0,West,10.4,-,N/A,,Clear,280,2013-12-09 17:15:00
11:35 AM,29.8,21.2,70,30.28,10.0,West,13.8,-,N/A,,Clear,270,2013-12-09 17:35:00
11:55 AM,29.8,20.5,68,30.28,10.0,West,11.5,-,N/A,,Clear,280,2013-12-09 17:55:00
12:15 PM,30.2,21.2,69,30.28,10.0,West,11.5,-,N/A,,Clear,280,2013-12-09 18:15:00
12:35 PM,30.2,21.0,69,30.28,10.0,West,9.2,-,N/A,,Clear,280,2013-12-09 18:35:00
12:55 PM,30.6,20.8,67,30.27,10.0,WNW,11.5,-,N/A,,Clear,290,2013-12-09 18:55:00
1:15 PM,30.9,21.4,68,30.27,10.0,West,10.4,-,N/A,,Clear,280,2013-12-09 19:15:00
1:35 PM,31.1,21.4,67,30.28,10.0,West,12.7,-,N/A,,Clear,280,2013-12-09 19:35:00
1:55 PM,31.1,21.4,67,30.28,10.0,WNW,10.4,-,N/A,,Clear,300,2013-12-09 19:55:00
2:15 PM,30.2,20.5,67,30.27,10.0,WNW,6.9,-,N/A,,Clear,290,2013-12-09 20:15:00
2:35 PM,30.2,19.9,66,30.27,10.0,NW,8.1,-,N/A,,Clear,310,2013-12-09 20:35:00
2:55 PM,29.8,20.8,69,30.26,10.0,NW,6.9,-,N/A,,Clear,310,2013-12-09 20:55:00
3:15 PM,29.3,21.0,71,30.27,10.0,WNW,5.8,-,N/A,,Clear,290,2013-12-09 21:15:00
3:35 PM,28.8,20.7,72,30.27,10.0,WNW,4.6,-,N/A,,Clear,300,2013-12-09 21:35:00
3:55 PM,27.7,20.1,73,30.28,10.0,WNW,5.8,-,N/A,,Clear,300,2013-12-09 21:55:00
4:15 PM,27.1,18.9,71,30.28,10.0,WNW,10.4,-,N/A,,Clear,290,2013-12-09 22:15:00
4:35 PM,26.4,19.4,75,30.28,10.0,WNW,4.6,-,N/A,,Clear,300,2013-12-09 22:35:00
4:55 PM,25.5,19.0,76,30.28,10.0,West,4.6,-,N/A,,Clear,280,2013-12-09 22:55:00
5:15 PM,24.1,18.7,80,30.29,10.0,WNW,6.9,-,N/A,,Clear,290,2013-12-09 23:15:00
5:35 PM,24.8,19.2,79,30.29,10.0,WNW,6.9,-,N/A,,Clear,300,2013-12-09 23:35:00
5:55 PM,24.4,19.4,81,30.29,10.0,WNW,4.6,-,N/A,,Clear,300,2013-12-09 23:55:00
6:15 PM,24.8,19.8,81,30.29,10.0,NW,5.8,-,N/A,,Clear,310,2013-12-10 00:15:00
6:35 PM,25.3,19.6,79,30.27,10.0,NNW,4.6,-,N/A,,Clear,330,2013-12-10 00:35:00
6:55 PM,25.2,19.9,81,30.27,10.0,NW,3.5,-,N/A,,Clear,320,2013-12-10 00:55:00
7:15 PM,25.2,19.9,81,30.28,10.0,Calm,Calm,-,N/A,,Clear,0,2013-12-10 01:15:00
7:35 PM,25.0,20.3,82,30.30,10.0,WNW,5.8,-,N/A,,Clear,290,2013-12-10 01:35:00
7:55 PM,24.8,20.3,83,30.29,10.0,WNW,4.6,-,N/A,,Scattered Clouds,300,2013-12-10 01:55:00
8:15 PM,25.2,20.1,81,30.28,10.0,NW,4.6,-,N/A,,Mostly Cloudy,310,2013-12-10 02:15:00
8:35 PM,25.2,20.1,81,30.28,10.0,NW,6.9,-,N/A,,Overcast,320,2013-12-10 02:35:00
8:55 PM,25.3,19.8,79,30.27,10.0,NW,5.8,-,N/A,,Overcast,320,2013-12-10 02:55:00
9:15 PM,25.2,19.9,81,30.27,10.0,NW,5.8,-,N/A,,Overcast,320,2013-12-10 03:15:00
9:35 PM,25.2,19.9,81,30.28,10.0,Calm,Calm,-,N/A,,Overcast,0,2013-12-10 03:35:00
9:55 PM,24.8,19.9,82,30.28,7.0,NW,5.8,-,N/A,Snow,Light Snow,310,2013-12-10 03:55:00
10:15 PM,24.1,21.6,90,30.29,1.8,NW,3.5,-,N/A,Snow,Light Snow,310,2013-12-10 04:15:00
10:35 PM,23.7,22.1,94,30.29,1.8,WNW,4.6,-,N/A,Snow,Light Snow,300,2013-12-10 04:35:00
10:55 PM,23.5,22.5,96,30.29,2.5,WNW,4.6,-,N/A,Snow,Light Snow,290,2013-12-10 04:55:00
11:15 PM,23.5,22.8,97,30.28,2.0,WNW,3.5,-,N/A,Snow,Light Snow,290,2013-12-10 05:15:00
11:35 PM,23.5,22.8,97,30.27,4.0,WNW,4.6,-,N/A,Snow,Light Snow,300,2013-12-10 05:35:00
11:55 PM,23.5,22.8,97,30.27,5.0,NW,6.9,-,N/A,Snow,Light Snow,320,2013-12-10 05:55:00